Weather History for PANN - June, 2014

Change the Weather History Date:

Tuesday, June 3, 2014

  Actual Average Record
Temperature  
Mean Temperature 54 °F -  
Max Temperature 66 °F 68 °F 79 °F (1989)
Min Temperature 44 °F 42 °F 33 °F (2006)
Degree Days  
Heating Degree Days 11    
Growing Degree Days 4 (Base 50)    
Moisture  
Dew Point 36 °F    
Average Humidity 50    
Maximum Humidity 90    
Minimum Humidity 29    
Precipitation  
Precipitation 0.00 in - - ()
Sea Level Pressure  
Sea Level Pressure 30.22 in    
Wind  
Wind Speed 3 mph (West)    
Max Wind Speed 7 mph    
Max Gust Speed -    
Visibility 10 miles    
Events      
Averages and records for this station are not official NWS values.
T = Trace of Precipitation, MM = Missing Value Source: NWS Daily Summary

Daily Weather History Graph

Daily Weather History Graph

Search for Another Location

Airport or City:

Trip Planner

Search our weather history database for the weather conditions in past years. The results will help you decide how hot, cold, wet, or windy it might be!

Date:

Astronomy

Jun. 03, 2014 Rise Set
Actual Time 3:37 AM AKDT 12:13 AM AKDT
Civil Twilight Sun does not rise Sun does not rise
Nautical Twilight Sun does not rise Sun does not rise
Astronomical Twilight Sun does not rise Sun does not rise
Moon 11:05 AM AKDT (6/3) 1:56 AM AKDT (6/3)
Length of Visible Light 24h 00m
Length of Day
20h 35m
Waxing Crescent, 31% of the Moon is Illuminated
Jun 3
Waxing Crescent
Jun 5
First Quarter
Jun 12
Full
Jun 19
Last Quarter
Jun 27
New

Hourly Weather History & Observations

Time (AKDT) Temp. Windchill Dew Point Humidity Pressure Visibility Wind Dir Wind Speed Gust Speed Precip Events Conditions
12:53 AM 48.9 °F - 37.9 °F 66% 30.24 in 10.0 mi Calm Calm - N/A   Overcast
1:53 AM 48.0 °F - 37.9 °F 68% 30.25 in 10.0 mi Calm Calm - N/A   Overcast
2:53 AM 48.9 °F - 36.0 °F 61% 30.26 in 10.0 mi NW 3.5 mph - N/A   Overcast
3:53 AM 48.0 °F - 36.0 °F 63% 30.26 in 10.0 mi West 4.6 mph - N/A   Overcast
4:53 AM 46.0 °F 44.8 °F 36.0 °F 68% 30.27 in 10.0 mi WNW 3.5 mph - N/A   Overcast
5:53 AM 46.9 °F - 36.0 °F 66% 30.28 in 10.0 mi West 3.5 mph - N/A   Overcast
6:53 AM 46.9 °F - 37.0 °F 68% 30.29 in 10.0 mi WNW 3.5 mph - N/A   Scattered Clouds
7:53 AM 50.0 °F - 36.0 °F 59% 30.29 in 10.0 mi NW 4.6 mph - N/A   Clear
8:53 AM 52.0 °F - 36.0 °F 54% 30.28 in 10.0 mi Variable 5.8 mph - N/A   Clear
9:53 AM 55.0 °F - 34.0 °F 45% 30.28 in 10.0 mi West 4.6 mph - N/A   Clear
10:53 AM 57.9 °F - 33.1 °F 39% 30.28 in 10.0 mi Variable 6.9 mph - N/A   Scattered Clouds
11:53 AM 57.9 °F - 33.1 °F 39% 30.27 in 10.0 mi Variable 4.6 mph - N/A   Scattered Clouds
12:53 PM 60.1 °F - 33.1 °F 36% 30.25 in 10.0 mi Variable 5.8 mph - N/A   Partly Cloudy
1:53 PM 61.0 °F - 33.1 °F 35% 30.25 in 10.0 mi Variable 4.6 mph - N/A   Scattered Clouds
2:53 PM 63.0 °F - 33.1 °F 33% 30.24 in 10.0 mi Variable 3.5 mph - N/A   Mostly Cloudy
3:53 PM 63.0 °F - 30.9 °F 30% 30.22 in 10.0 mi Calm Calm - N/A   Partly Cloudy
4:53 PM 61.0 °F - 32.0 °F 34% 30.20 in 10.0 mi Calm Calm - N/A   Clear
5:53 PM 64.0 °F - 30.9 °F 29% 30.19 in 10.0 mi Calm Calm - N/A   Clear
6:53 PM 64.0 °F - 30.9 °F 29% 30.17 in 10.0 mi SSE 3.5 mph - N/A   Clear
7:53 PM 64.9 °F - 32.0 °F 29% 30.16 in 10.0 mi SSW 3.5 mph - N/A   Clear
8:53 PM 64.0 °F - 32.0 °F 30% 30.16 in 10.0 mi Calm Calm - N/A   Clear
10:53 PM 55.9 °F - 39.0 °F 53% 30.16 in 10.0 mi Calm Calm - N/A   Clear
11:53 PM 51.1 °F - 37.9 °F 61% 30.16 in 10.0 mi Calm Calm - N/A   Clear